Weather History for Dillon, MT

Change the Weather History Date:

Saturday, July 27, 2013

  Actual Average Record
Temperature  
Mean Temperature 67 °F 67 °F  
Max Temperature 81 °F 84 °F 95 °F (1975)
Min Temperature 52 °F 50 °F 39 °F (1963)
Degree Days  
Heating Degree Days 0    
Month to date heating degree days 0  
Since 1 June heating degree days 188  
Since 1 July heating degree days 0  
Cooling Degree Days 2    
Month to date cooling degree days 128  
Year to date cooling degree days 153  
Since 1 June cooling degree days 150  
Growing Degree Days 16 (Base 50)    
Moisture  
Dew Point 44 °F    
Average Humidity 48    
Maximum Humidity 67    
Minimum Humidity 28    
Precipitation  
Precipitation T in 0.04 in 0.34 in (2002)
Month to date precipitation 0.84 1.06  
Year to date precipitation 5.42 7.10  
Snow  
Snow 0.00 in - - ()
Snow Depth 0.00 in    
Sea Level Pressure  
Sea Level Pressure 29.93 in    
Wind  
Wind Speed 8 mph (SSW)    
Max Wind Speed 23 mph    
Max Gust Speed 29 mph    
Visibility 10 miles    
Events      
T = Trace of Precipitation, MM = Missing Value Source: NWS Daily Summary

Daily Weather History Graph

Daily Weather History Graph

Search for Another Location

Airport:

Trip Planner

Search our weather history database for the weather conditions in past years. The results will help you decide how hot, cold, wet, or windy it might be!

Date:

Astronomy

Jul. 27, 2013 Rise Set
Actual Time 6:09 AM MDT 9:03 PM MDT
Civil Twilight 5:34 AM MDT 9:37 PM MDT
Nautical Twilight 4:50 AM MDT 10:21 PM MDT
Astronomical Twilight 3:58 AM MDT 11:13 PM MDT
Moon 11:31 PM MDT (7/27) 12:13 PM MDT (7/27)
Length of Visible Light 16h 02m
Length of Day
14h 53m
Waning Gibbous, 70% of the Moon is Illuminated
Jul 27
Waning Gibbous
Jul 29
Last Quarter
Aug 6
New
Aug 14
First Quarter
Aug 20
Full

Hourly Weather History & Observations

Time (MDT) Temp. Dew Point Humidity Pressure Visibility Wind Dir Wind Speed Gust Speed Precip Events Conditions
12:53 AM 64.0 °F 39.9 °F 41% 29.97 in 10.0 mi SSW 9.2 mph - N/A   Clear
1:53 AM 61.0 °F 41.0 °F 48% 29.97 in 10.0 mi Variable 5.8 mph - N/A   Clear
2:53 AM 57.9 °F 39.9 °F 51% 29.96 in 10.0 mi SW 11.5 mph - N/A   Clear
3:53 AM 53.1 °F 41.0 °F 64% 29.96 in 10.0 mi SSW 8.1 mph - N/A   Clear
4:53 AM 55.9 °F 39.9 °F 55% 29.96 in 10.0 mi SSW 11.5 mph - N/A   Clear
5:53 AM 54.0 °F 39.0 °F 57% 29.98 in 10.0 mi South 10.4 mph - N/A   Clear
6:53 AM 57.0 °F 39.0 °F 51% 29.97 in 10.0 mi South 11.5 mph - N/A   Clear
7:53 AM 61.0 °F 43.0 °F 52% 29.98 in 10.0 mi South 8.1 mph - N/A   Clear
8:53 AM 64.0 °F 45.0 °F 50% 29.96 in 10.0 mi South 10.4 mph - N/A   Clear
9:53 AM 64.9 °F 46.0 °F 50% 29.96 in 10.0 mi SW 5.8 mph - N/A   Mostly Cloudy
10:53 AM 70.0 °F 46.9 °F 44% 29.95 in 10.0 mi SSW 8.1 mph - N/A   Mostly Cloudy
11:53 AM 68.0 °F 52.0 °F 56% 29.96 in 10.0 mi NE 3.5 mph - N/A   Overcast
12:53 PM 73.0 °F 46.9 °F 39% 29.95 in 10.0 mi East 4.6 mph - N/A   Overcast
1:53 PM 68.0 °F 52.0 °F 56% 29.98 in 10.0 mi SW 9.2 mph 20.7 mph 0.00 in   Overcast
2:53 PM 71.1 °F 48.0 °F 44% 29.94 in 10.0 mi SSW 10.4 mph 20.7 mph 0.00 in   Mostly Cloudy
3:53 PM 75.9 °F 46.9 °F 36% 29.91 in 10.0 mi SW 5.8 mph - N/A   Scattered Clouds
6:53 PM 79.0 °F 42.1 °F 27% 29.83 in 10.0 mi SSE 9.2 mph - N/A   Clear
7:53 PM 77.0 °F 42.1 °F 29% 29.82 in 10.0 mi South 8.1 mph - N/A   Clear
8:53 PM 62.1 °F 51.1 °F 67% 29.85 in 10.0 mi SW 6.9 mph - N/A   Clear
9:53 PM 64.9 °F 46.0 °F 50% 29.86 in 10.0 mi South 3.5 mph - N/A   Clear
10:53 PM 63.0 °F 46.0 °F 54% 29.86 in 10.0 mi SSE 5.8 mph - N/A   Clear
11:53 PM 64.9 °F 44.1 °F 47% 29.86 in 10.0 mi South 8.1 mph - N/A   Partly Cloudy